Wind_Speed
20 18 17 16 15 15 16 19 20 15 11 11 10 8 9 10 12 15 15 15 14 12 11 10 11 11 12 13 14 15 16 16 17 17 16 15 15 15 15 15 16 15
21 19 18 17 17 17 17 19 18 14 11 11 10 9 10 12 15 16 16 16 14 12 12 11 12 13 13 14 15 16 17 17 18 17 16 16 15 15 15 15 16 16
22 20 19 18 18 19 20 20 17 13 12 10 9 9 11 14 17 18 17 16 14 13 12 12 13 14 15 16 16 17 18 17 18 17 17 17 16 16 16 16 16 16
21 19 19 19 20 21 21 19 15 13 11 8 7 9 13 17 19 19 17 15 14 13 13 14 15 15 16 17 17 18 18 18 18 18 17 17 16 16 16 16 17 18
22 20 21 20 21 23 22 18 14 12 10 7 7 11 16 18 18 18 16 15 13 13 14 15 16 17 17 18 18 18 19 18 18 18 17 17 17 17 17 17 18 18
23 22 22 22 23 24 21 18 15 12 9 7 8 13 17 18 18 18 16 15 14 13 14 16 17 18 18 19 19 19 19 19 18 18 17 18 18 18 18 17 17 17
24 24 24 24 25 24 21 18 16 13 9 7 10 15 19 19 18 18 17 16 15 15 16 17 18 19 20 20 20 20 20 19 19 18 18 18 18 19 19 18 18 17
24 25 26 27 27 25 22 19 17 13 10 8 12 19 21 19 19 18 17 16 15 15 17 18 19 20 21 21 21 20 20 20 19 19 19 18 18 19 19 18 18 18
25 26 28 29 28 26 22 19 17 13 10 9 13 20 21 19 19 18 17 16 15 16 18 19 20 21 21 21 21 20 20 20 20 20 19 19 19 19 18 18 18 19
25 27 30 30 29 26 23 20 17 14 11 8 12 18 21 19 19 17 16 16 16 18 20 21 21 22 22 21 21 20 20 20 21 21 20 19 19 19 18 18 18 18
26 29 30 30 28 25 23 21 17 14 11 9 9 14 19 19 19 17 17 16 17 19 21 21 22 23 23 23 22 21 21 21 22 21 20 20 19 19 19 18 18 17
28 30 31 30 27 25 24 21 18 14 12 9 7 12 18 20 19 18 17 17 18 20 21 22 23 24 23 23 23 22 22 22 22 21 20 20 19 19 19 18 17 16
29 31 31 31 28 26 24 22 19 15 12 10 8 11 18 20 19 19 18 17 18 20 22 23 24 24 24 23 23 23 23 22 22 21 21 20 20 19 19 18 17 16
30 31 32 32 30 28 25 23 20 15 12 10 9 12 19 20 19 20 18 18 20 21 22 24 24 24 24 24 23 22 22 22 22 22 21 20 20 19 19 18 16 15
31 33 33 32 31 28 26 24 21 16 13 11 10 15 20 20 20 20 19 20 21 22 23 24 25 24 24 24 23 23 22 22 21 21 21 20 20 19 18 17 15 14
32 33 33 32 31 29 26 24 21 17 14 11 12 18 21 20 20 20 20 21 22 23 25 25 25 25 25 25 24 23 23 22 22 21 20 20 20 19 18 16 14 13
30 31 31 32 31 28 26 24 20 18 15 13 15 20 22 21 21 21 20 21 23 24 26 26 27 27 27 26 25 24 23 22 22 22 21 20 19 18 17 15 13 13
29 30 30 31 29 27 26 23 21 19 15 13 16 21 23 22 22 22 21 22 23 25 26 27 28 27 26 26 26 25 24 21 21 22 20 19 17 16 15 14 13 13
29 28 28 29 28 27 26 23 21 18 13 13 17 20 23 23 22 22 22 22 23 25 27 27 27 26 25 25 25 26 25 21 19 20 19 17 16 14 13 12 11 11
28 27 27 28 28 26 25 24 21 15 13 15 16 18 22 23 23 23 23 23 23 25 27 27 25 25 25 24 23 25 25 20 17 18 19 18 18 16 13 12 10 9
28 28 28 29 28 26 25 25 20 14 14 16 15 17 21 22 23 24 24 24 24 25 26 27 26 26 25 25 24 24 24 21 17 19 20 20 20 19 17 16 14 12
27 29 30 30 28 26 26 23 18 14 15 16 15 17 20 21 23 23 23 24 24 24 27 28 27 27 27 26 25 25 24 22 19 21 21 20 20 19 17 16 15 13
28 29 30 29 28 27 26 20 16 16 16 16 17 18 20 21 22 22 22 23 23 23 28 29 28 27 27 26 26 26 25 22 19 18 18 19 19 18 17 17 16 13
28 27 27 28 27 27 23 17 15 16 16 16 17 19 21 21 21 21 22 22 23 25 28 28 27 27 27 26 26 25 25 24 19 14 15 18 19 17 17 16 15 13
23 25 26 26 26 24 20 17 17 16 15 16 18 19 20 20 19 20 20 22 26 28 26 25 27 27 26 26 27 26 27 25 18 11 14 18 18 17 16 15 14 13
23 26 26 25 23 22 20 20 19 17 15 17 18 19 19 18 19 21 21 23 26 26 24 25 28 28 27 27 28 28 28 25 18 11 14 16 16 15 14 14 14 14
Wind_Direction
195 194 193 197 200 196 192 187 182 180 178 175 178 190 204 199 183 173 169 171 171 167 162 156 151 152 150 148 148 147 145 140 133 129 126 122 117 114 112 110 109 106
193 194 196 198 195 190 185 179 176 177 176 173 178 195 205 192 176 172 172 171 170 165 160 156 153 152 150 148 148 147 144 139 133 130 125 120 117 116 115 112 110 109
193 193 196 198 192 185 180 175 170 171 173 173 180 195 199 185 171 170 172 170 168 164 159 156 153 151 151 151 150 148 145 140 135 131 126 123 121 119 117 115 113 111
192 192 196 196 190 183 177 171 166 168 173 175 182 189 188 180 170 168 170 169 167 164 160 157 153 153 153 152 151 148 145 140 134 131 128 126 125 123 121 118 115 110
192 195 195 192 187 179 170 167 168 170 172 177 184 183 181 178 170 167 168 167 167 165 161 158 155 155 154 152 151 149 144 139 135 133 131 129 127 124 122 119 116 112
192 195 192 186 181 175 167 167 171 170 171 183 185 177 176 177 172 168 168 168 168 166 162 158 157 156 154 153 153 149 143 139 135 135 134 132 130 126 123 119 116 114
191 189 187 180 173 171 171 170 171 172 175 184 186 179 178 178 173 171 172 171 170 167 163 161 160 158 156 155 154 149 144 140 138 138 137 135 133 129 125 121 118 116
188 184 183 176 170 172 175 171 171 175 176 180 185 182 178 177 177 176 175 174 170 167 163 162 162 160 158 158 155 150 146 143 141 141 140 138 134 131 126 124 122 119
186 183 182 175 172 176 175 171 173 174 174 174 179 180 177 177 181 180 176 174 170 166 164 164 164 162 161 159 156 152 149 146 145 144 141 137 133 130 128 126 124 121
184 184 181 176 175 177 174 173 176 177 175 162 165 176 178 179 182 181 178 176 171 167 167 167 166 163 161 159 156 154 151 148 147 146 142 139 135 133 131 129 127 123
184 184 181 177 177 178 176 176 180 183 176 151 154 180 184 182 182 181 180 178 173 170 170 169 167 164 162 161 158 156 154 152 152 150 148 145 142 139 137 134 131 127
185 183 179 176 178 179 178 179 185 184 169 153 165 188 187 185 184 183 182 179 174 173 173 170 168 166 165 163 161 159 158 158 157 155 151 148 145 143 142 139 135 130
185 182 177 177 181 181 179 183 189 182 166 166 187 193 187 186 186 184 182 177 175 176 174 172 170 168 167 165 164 164 163 162 160 156 152 150 148 147 145 142 139 135
183 180 178 179 181 181 181 187 188 179 172 181 199 195 187 186 189 186 181 177 177 176 175 174 173 171 170 169 168 167 165 164 162 158 156 154 152 150 149 146 143 139
180 179 179 180 182 182 185 189 186 180 182 195 204 193 184 185 190 187 182 179 176 176 178 177 175 173 172 171 171 169 168 166 163 160 158 155 153 152 152 149 146 141
180 182 181 180 182 184 187 189 187 184 190 200 202 190 182 184 187 185 184 181 177 178 181 179 176 176 175 172 172 170 168 166 163 160 159 158 157 156 154 151 147 142
181 183 181 180 182 184 187 189 189 192 196 199 195 187 182 184 185 184 184 181 180 183 184 182 181 181 178 174 171 168 168 167 164 162 161 161 160 158 156 153 149 145
182 182 181 182 182 183 187 190 191 196 196 187 184 186 186 186 185 186 185 181 183 187 187 188 187 182 180 178 173 169 166 163 164 164 162 161 160 159 159 159 156 152
185 183 181 181 182 184 188 191 192 194 187 176 178 185 190 189 186 188 186 182 184 188 190 192 188 181 182 182 177 173 166 160 164 166 161 160 162 163 165 165 160 156
188 187 183 181 183 186 189 192 193 189 181 178 178 182 188 189 187 188 188 185 185 190 194 193 185 181 182 182 180 177 168 159 163 168 167 169 170 169 170 168 162 162
191 190 186 185 186 187 190 194 194 185 179 180 180 182 185 187 189 190 191 189 187 191 195 192 184 181 181 178 179 180 171 163 167 174 176 178 178 178 176 175 173 173
192 193 190 188 187 188 192 195 191 182 181 182 181 181 182 186 190 192 193 190 187 191 196 191 184 184 182 177 178 180 177 173 174 179 182 182 184 185 182 180 179 174
191 195 194 191 189 190 192 191 186 184 185 184 183 182 182 188 191 192 193 189 184 191 198 192 184 184 183 181 181 182 183 181 176 180 187 187 188 188 186 188 186 177
190 195 198 197 195 194 192 187 186 188 188 186 185 183 183 186 188 189 190 186 186 196 199 191 185 185 185 186 185 186 189 183 172 179 195 192 191 192 192 197 196 189
190 192 198 201 200 196 192 188 186 187 188 187 185 184 184 185 185 183 180 183 193 201 197 188 188 188 187 188 187 188 191 181 166 182 203 195 194 197 197 201 200 200
192 192 197 204 203 197 192 190 188 186 186 185 184 182 179 177 177 178 181 190 200 202 192 187 191 191 188 190 190 191 191 179 163 180 202 195 196 201 201 206 207 205
Height
1526 1528 1529 1530 1531 1532 1533 1535 1537 1538 1539 1540 1541 1542 1543 1544 1545 1546 1547 1548 1549 1549 1548 1549 1549 1549 1550 1550 1551 1551 1552 1553 1553 1554 1554 1554 1555 1555 1555 1555 1555 1555
1524 1526 1528 1528 1529 1531 1533 1534 1536 1537 1538 1539 1540 1541 1542 1543 1545 1545 1546 1548 1548 1548 1548 1548 1549 1549 1550 1551 1551 1552 1552 1553 1553 1554 1555 1555 1555 1555 1556 1556 1556 1556
1523 1525 1526 1527 1528 1530 1532 1533 1535 1536 1537 1538 1539 1541 1542 1542 1543 1544 1546 1547 1547 1547 1548 1548 1549 1549 1550 1551 1552 1552 1553 1553 1554 1554 1555 1555 1556 1556 1556 1557 1557 1557
1522 1524 1525 1526 1527 1529 1531 1533 1535 1535 1536 1538 1539 1540 1541 1542 1543 1544 1545 1546 1546 1547 1547 1548 1548 1549 1550 1551 1552 1552 1553 1554 1554 1555 1555 1556 1556 1557 1557 1557 1557 1557
1521 1523 1524 1525 1527 1528 1530 1532 1534 1535 1536 1537 1538 1540 1541 1542 1543 1544 1544 1545 1546 1547 1547 1548 1548 1549 1550 1551 1552 1553 1553 1554 1555 1555 1556 1556 1557 1557 1557 1558 1557 1557
1520 1521 1523 1525 1526 1528 1530 1531 1533 1534 1535 1536 1537 1539 1540 1542 1542 1543 1544 1545 1545 1546 1547 1547 1548 1549 1550 1551 1552 1553 1553 1554 1555 1556 1556 1557 1557 1558 1558 1558 1558 1558
1518 1519 1521 1524 1526 1528 1529 1530 1531 1533 1534 1536 1536 1538 1540 1541 1542 1542 1543 1544 1545 1546 1546 1547 1548 1549 1550 1551 1552 1552 1553 1554 1555 1556 1557 1557 1558 1558 1558 1558 1559 1559
1517 1518 1520 1522 1524 1526 1528 1529 1530 1532 1534 1535 1535 1537 1539 1540 1541 1542 1542 1543 1544 1545 1546 1547 1548 1549 1550 1551 1551 1552 1553 1554 1555 1556 1557 1558 1558 1559 1558 1559 1559 1559
1515 1517 1519 1521 1523 1525 1527 1528 1530 1531 1533 1534 1535 1536 1537 1539 1540 1541 1542 1542 1543 1544 1545 1547 1548 1548 1550 1550 1551 1552 1553 1554 1555 1556 1557 1558 1559 1559 1559 1559 1559 1560
1514 1515 1517 1520 1522 1524 1526 1528 1530 1531 1533 1534 1534 1535 1536 1538 1539 1541 1541 1542 1543 1544 1545 1546 1547 1548 1549 1550 1551 1552 1553 1554 1555 1556 1557 1558 1558 1559 1559 1560 1560 1560
1512 1514 1516 1519 1521 1524 1526 1528 1529 1531 1532 1533 1533 1534 1535 1537 1538 1540 1541 1541 1542 1544 1545 1546 1547 1548 1549 1549 1550 1552 1553 1554 1555 1556 1557 1557 1558 1558 1559 1560 1560 1561
1510 1513 1515 1518 1521 1523 1525 1527 1529 1530 1531 1532 1532 1534 1535 1536 1538 1539 1540 1541 1542 1543 1544 1545 1547 1547 1548 1549 1550 1551 1552 1553 1554 1555 1556 1557 1557 1558 1559 1560 1560 1561
1509 1512 1514 1517 1520 1523 1525 1527 1528 1529 1530 1531 1532 1532 1534 1535 1537 1538 1539 1541 1542 1543 1544 1545 1546 1547 1548 1549 1550 1551 1552 1553 1554 1555 1555 1556 1557 1558 1559 1560 1560 1561
1508 1511 1514 1517 1519 1522 1524 1526 1527 1528 1529 1530 1531 1532 1533 1535 1536 1537 1539 1540 1541 1542 1543 1544 1545 1546 1548 1549 1550 1551 1551 1553 1553 1554 1555 1555 1556 1558 1559 1560 1560 1561
1507 1510 1513 1516 1518 1520 1523 1524 1526 1527 1528 1529 1530 1531 1532 1534 1535 1536 1538 1539 1540 1541 1542 1544 1545 1546 1547 1548 1549 1550 1551 1553 1553 1554 1555 1555 1556 1558 1559 1560 1561 1561
1506 1508 1511 1514 1517 1519 1521 1523 1524 1526 1527 1528 1529 1530 1531 1532 1534 1535 1537 1538 1539 1540 1541 1543 1544 1545 1546 1547 1549 1550 1551 1552 1553 1554 1555 1556 1557 1558 1559 1560 1561 1561
1505 1507 1510 1513 1515 1518 1520 1522 1523 1525 1526 1527 1528 1529 1530 1531 1533 1534 1535 1537 1538 1539 1540 1541 1542 1543 1545 1546 1548 1549 1551 1552 1553 1554 1555 1556 1557 1558 1559 1560 1561 1561
1503 1506 1509 1512 1514 1517 1519 1521 1522 1524 1525 1526 1527 1528 1529 1530 1531 1533 1534 1535 1537 1538 1539 1540 1541 1543 1544 1546 1547 1548 1550 1551 1553 1554 1555 1556 1557 1558 1560 1560 1560 1561
1502 1505 1507 1511 1513 1516 1518 1519 1522 1523 1524 1526 1527 1527 1528 1529 1530 1531 1533 1534 1535 1537 1538 1539 1540 1542 1544 1545 1546 1547 1548 1551 1552 1553 1554 1556 1557 1559 1560 1560 1560 1561
1501 1504 1506 1509 1512 1514 1517 1518 1520 1522 1524 1525 1526 1526 1527 1528 1529 1530 1531 1533 1534 1535 1536 1537 1540 1541 1543 1544 1546 1547 1548 1550 1552 1553 1554 1555 1556 1558 1559 1560 1560 1561
1500 1503 1505 1508 1510 1513 1515 1517 1519 1521 1522 1524 1525 1525 1526 1527 1528 1529 1530 1532 1533 1534 1535 1536 1538 1540 1541 1543 1545 1547 1549 1550 1551 1552 1553 1554 1555 1557 1558 1559 1559 1560
1499 1502 1504 1507 1509 1512 1514 1516 1518 1520 1521 1523 1524 1525 1526 1526 1527 1528 1529 1531 1532 1533 1533 1535 1537 1539 1540 1542 1543 1546 1548 1549 1550 1551 1552 1553 1555 1556 1557 1558 1558 1559
1498 1501 1504 1506 1508 1510 1513 1515 1517 1519 1520 1521 1523 1524 1524 1525 1526 1527 1528 1530 1531 1532 1532 1533 1536 1537 1539 1540 1542 1544 1547 1548 1550 1552 1553 1553 1555 1556 1557 1557 1557 1558
1497 1500 1503 1505 1507 1509 1512 1514 1516 1518 1519 1520 1522 1523 1523 1524 1525 1526 1527 1529 1530 1530 1530 1533 1536 1537 1538 1539 1540 1543 1545 1547 1549 1552 1553 1553 1554 1555 1556 1556 1557 1557
1497 1499 1502 1504 1506 1508 1510 1513 1515 1516 1518 1519 1521 1522 1522 1523 1524 1525 1527 1528 1528 1528 1531 1534 1535 1536 1537 1538 1539 1541 1543 1545 1548 1551 1552 1552 1554 1555 1555 1556 1556 1557
1496 1498 1500 1502 1504 1507 1510 1512 1513 1514 1516 1518 1520 1521 1522 1523 1524 1524 1525 1526 1527 1529 1531 1533 1534 1535 1536 1537 1539 1540 1542 1544 1547 1550 1551 1552 1553 1554 1555 1555 1555 1556